HB9TUO-2 Weather Reports


time (UTC)temp
F
wind
direction
speed
knots
gust
knots
rain 1hr
in
rain 24hr
in
rain mn
in
humidity
%
barometer
mb
20260902144004 81 220 1.7 4.3 0.00 0.00 0.00 38 1016.7
20260902143714 81 201 0.9 5.2 0.00 0.00 0.00 41 1016.5
20260902143003 80 201 3.5 5.2 0.00 0.00 0.00 40 1016.3
20260902142715 80 218 1.7 6.1 0.00 0.00 0.00 41 1016.5
20260902142003 81 217 2.6 6.1 0.00 0.00 0.00 41 1016.4
20260902141503 80 220 1.7 3.5 0.00 0.00 0.00 41 1016.3
20260902141003 80 326 2.6 3.5 0.00 0.00 0.00 42 1016.6
20260902140503 80 270 1.7 7.0 0.00 0.00 0.00 41 1016.4
20260902140215 80 182 1.7 7.0 0.00 0.00 0.00 41 1016.4
20260902135503 80 186 3.5 4.3 0.00 0.00 0.00 43 1016.6
20260902135003 78 191 1.7 3.5 0.00 0.00 0.00 44 1016.6
20260902134503 79 204 1.7 4.3 0.00 0.00 0.00 45 1016.7
20260902134217 79 215 1.7 4.3 0.00 0.00 0.00 45 1016.6
20260902133504 79 188 1.7 5.2 0.00 0.00 0.00 46 1016.4
20260902133003 78 196 1.7 5.2 0.00 0.00 0.00 49 1016.5
20260902132503 78 210 3.5 4.3 0.00 0.00 0.00 47 1016.8
20260902132003 78 164 1.7 5.2 0.00 0.00 0.00 46 1016.8
20260902131717 79 164 3.5 5.2 0.00 0.00 0.00 46 1016.9
20260902131004 79 210 1.7 4.3 0.00 0.00 0.00 44 1016.8
20260902130503 78 211 0.0 5.2 0.00 0.00 0.00 50 1016.7
20260902130004 78 206 1.7 5.2 0.00 0.00 0.00 49 1017.0
20260902125504 77 172 3.5 5.2 0.00 0.00 0.00 50 1017.1
20260902125003 77 172 1.7 3.5 0.00 0.00 0.00 50 1016.8
20260902124504 77 196 2.6 6.1 0.00 0.00 0.00 48 1017.0
20260902124003 77 190 1.7 6.1 0.00 0.00 0.00 51 1016.9
20260902123503 77 167 3.5 6.1 0.00 0.00 0.00 50 1017.3
20260902123003 77 169 3.5 5.2 0.00 0.00 0.00 50 1017.4
20260902122503 76 208 2.6 3.5 0.00 0.00 0.00 51 1017.2
20260902122003 76 156 1.7 3.5 0.00 0.00 0.00 52 1017.2
20260902121503 75 169 2.6 3.5 0.00 0.00 0.00 53 1017.4
20260902121215 75 197 1.7 3.5 0.00 0.00 0.00 55 1017.3
20260902120504 76 216 1.7 4.3 0.00 0.00 0.00 55 1017.1
20260902120216 76 209 1.7 4.3 0.00 0.00 0.00 55 1017.3
20260902115714 75 196 3.5 4.3 0.00 0.00 0.00 54 1017.3
20260902115004 75 184 3.5 6.1 0.00 0.00 0.00 55 1017.6
20260902114504 74 169 2.6 6.1 0.00 0.00 0.00 56 1017.5
20260902114004 74 163 3.5 6.1 0.00 0.00 0.00 59 1017.4
20260902113504 74 168 3.5 6.1 0.00 0.00 0.00 58 1017.7
20260902113004 74 157 5.2 6.1 0.00 0.00 0.00 58 1017.6
20260902112504 74 166 2.6 4.3 0.00 0.00 0.00 59 1017.5
20260902112004 74 182 3.5 5.2 0.00 0.00 0.00 59 1017.6
20260902111504 74 176 2.6 5.2 0.00 0.00 0.00 59 1017.7
20260902111004 74 198 1.7 3.5 0.00 0.00 0.00 61 1017.8
20260902110504 72 235 1.7 3.5 0.00 0.00 0.00 61 1017.9
20260902110007 72 201 1.7 3.5 0.00 0.00 0.00 64 1018.0
20260902105715 71 195 3.5 3.5 0.00 0.00 0.00 63 1018.0
20260902105003 71 183 1.7 4.3 0.00 0.00 0.00 65 1018.2
20260902104504 71 170 1.7 4.3 0.00 0.00 0.00 65 1018.0
20260902104214 71 167 1.7 4.3 0.00 0.00 0.00 64 1017.9
20260902103504 72 180 1.7 3.5 0.00 0.00 0.00 64 1018.1
20260902103004 71 181 1.7 3.5 0.00 0.00 0.00 66 1017.9
20260902102504 71 171 1.7 3.5 0.00 0.00 0.00 66 1018.0
20260902102003 70 184 0.9 3.5 0.00 0.00 0.00 66 1018.3
20260902101504 70 201 1.7 1.7 0.00 0.00 0.00 68 1018.2
20260902101004 69 192 0.9 1.7 0.00 0.00 0.00 64 1018.1
20260902100504 69 182 1.7 2.6 0.00 0.00 0.00 66 1018.2
20260902100004 69 175 1.7 2.6 0.00 0.00 0.00 66 1018.0
20260902095504 69 162 1.7 2.6 0.00 0.00 0.00 65 1018.1
20260902095003 70 162 1.7 2.6 0.00 0.00 0.00 65 1018.2
20260902094504 69 152 0.0 2.6 0.00 0.00 0.00 68 1018.2
20260902094004 69 156 0.9 2.6 0.00 0.00 0.00 68 1018.1
20260902093717 69 171 1.7 2.6 0.00 0.00 0.00 68 1018.2
20260902093003 68 188 0.9 2.6 0.00 0.00 0.00 69 1018.3
20260902092713 68 172 1.7 2.6 0.00 0.00 0.00 68 1018.2
20260902092003 68 143 1.7 2.6 0.00 0.00 0.00 69 1018.2
20260902091504 68 147 0.9 1.7 0.00 0.00 0.00 69 1018.1
20260902091217 68 149 0.9 1.7 0.00 0.00 0.00 70 1018.4
20260902090715 67 146 0.9 1.7 0.00 0.00 0.00 70 1018.3
20260902090213 67 154 0.0 1.7 0.00 0.00 0.00 70 1018.2
20260902085504 67 171 0.9 1.7 0.00 0.00 0.00 70 1018.0
20260902085003 67 172 0.9 1.7 0.00 0.00 0.00 71 1018.1
20260902084503 67 180 0.9 1.7 0.00 0.00 0.00 71 1018.1
20260902084003 67 176 1.7 1.7 0.00 0.00 0.00 71 1018.3
20260902083504 67 161 0.9 1.7 0.00 0.00 0.00 70 1018.0
20260902083003 67 164 0.0 1.7 0.00 0.00 0.00 71 1018.1
20260902082504 67 176 0.0 1.7 0.00 0.00 0.00 71 1018.0
20260902082003 66 324 0.0 1.7 0.00 0.00 0.00 71 1017.7
20260902081715 66 333 0.0 1.7 0.00 0.00 0.00 71 1017.8
20260902081003 66 183 0.0 0.9 0.00 0.00 0.00 71 1018.2
20260902080503 66 165 0.0 0.9 0.00 0.00 0.00 72 1017.9
20260902080214 66 152 0.0 0.9 0.00 0.00 0.00 72 1017.8
20260902075504 66 145 0.0 0.9 0.00 0.00 0.00 71 1017.9
20260902075004 66 147 0.0 0.9 0.00 0.00 0.00 71 1017.9
20260902074718 66 126 0.0 0.9 0.00 0.00 0.00 72 1017.8
20260902074004 65 360 0.0 1.7 0.00 0.00 0.00 72 1017.7
20260902073504 64 1 0.9 1.7 0.00 0.00 0.00 71 1017.5
20260902073217 64 1 0.0 1.7 0.00 0.00 0.00 72 1017.7
20260902072715 64 45 0.0 0.9 0.00 0.00 0.00 72 1017.8
20260902072004 64 128 0.0 1.7 0.00 0.00 0.00 73 1017.4
20260902071504 64 360 0.0 1.7 0.00 0.00 0.00 73 1017.5
20260902071004 64 360 0.0 1.7 0.00 0.00 0.00 73 1017.7
20260902070504 64 360 0.9 1.7 0.00 0.00 0.00 74 1017.6
20260902070006 64 0 0.0 0.0 0.00 0.00 0.00 73 1017.6
20260902065718 63 0 0.0 0.0 0.00 0.00 0.00 77 1017.6
20260902065003 63 90 0.0 0.9 0.00 0.00 0.00 76 1017.6
20260902064713 63 90 0.0 0.9 0.00 0.00 0.00 76 1017.6
20260902064004 63 90 0.0 0.9 0.00 0.00 0.00 76 1017.6
20260902063504 63 0 0.0 0.0 0.00 0.00 0.00 76 1017.5
20260902063004 63 90 0.0 0.9 0.00 0.00 0.00 77 1017.4
20260902062715 63 90 0.0 0.9 0.00 0.00 0.00 77 1017.6
20260902062004 62 48 0.0 1.7 0.00 0.00 0.00 78 1017.4
20260902061004 62 360 0.9 1.7 0.00 0.00 0.00 79 1017.6
20260902060503 61 5 0.0 1.7 0.00 0.00 0.00 80 1017.4
20260902060004 61 15 0.0 1.7 0.00 0.00 0.00 80 1017.5
20260902055713 61 5 0.0 1.7 0.00 0.00 0.00 80 1017.4
20260902055003 61 356 0.0 1.7 0.00 0.00 0.00 80 1017.4
20260902054504 61 5 1.7 2.6 0.00 0.00 0.00 80 1017.5
20260902054003 61 12 0.9 2.6 0.00 0.00 0.00 80 1017.5
20260902053504 60 12 0.9 1.7 0.00 0.00 0.00 81 1017.4
20260902053213 60 7 0.9 1.7 0.00 0.00 0.00 81 1017.2
20260902052503 60 16 0.9 1.7 0.00 0.00 0.00 81 1017.4
20260902052004 60 22 0.0 1.7 0.00 0.00 0.00 80 1017.1
20260902051504 61 46 0.0 0.9 0.00 0.00 0.00 81 1017.2
20260902051003 61 49 0.0 1.7 0.00 0.00 0.00 81 1017.4
20260902050713 61 38 0.0 1.7 0.00 0.00 0.00 81 1017.3
20260902050006 60 27 0.0 0.9 0.00 0.00 0.00 81 1017.1
20260902045503 60 47 0.0 1.7 0.00 0.00 0.00 81 1017.4
20260902045003 61 45 0.0 1.7 0.00 0.00 0.00 81 1017.2
20260902044503 61 55 0.9 1.7 0.00 0.00 0.00 81 1017.4
20260902044003 61 64 0.0 1.7 0.00 0.00 0.00 81 1017.1
20260902043503 61 38 0.0 1.7 0.00 0.00 0.00 81 1017.3
20260902043003 61 8 0.9 1.7 0.00 0.00 0.00 81 1017.1
20260902042504 61 354 1.7 1.7 0.00 0.00 0.00 80 1017.1
20260902042214 61 350 1.7 1.7 0.00 0.00 0.00 80 1017.1
20260902041717 61 14 0.9 1.7 0.00 0.00 0.00 80 1016.9
20260902041004 61 43 0.9 1.7 0.00 0.00 0.00 80 1017.1
20260902040504 61 45 0.0 0.9 0.00 0.00 0.00 80 1016.9
20260902040004 61 14 0.0 1.7 0.00 0.00 0.00 80 1016.9
20260902035504 61 360 0.0 2.6 0.00 0.00 0.00 80 1017.0
20260902035004 61 360 0.9 2.6 0.00 0.00 0.00 80 1017.0
20260902034504 61 2 1.7 1.7 0.00 0.00 0.00 80 1017.1
20260902034213 61 2 0.9 1.7 0.00 0.00 0.00 80 1017.1
20260902033504 61 360 1.7 1.7 0.00 0.00 0.00 80 1017.0
20260902033004 61 360 0.9 1.7 0.00 0.00 0.00 80 1017.0
20260902032503 61 1 0.9 1.7 0.00 0.00 0.00 80 1017.1
20260902032215 61 12 0.9 1.7 0.00 0.00 0.00 80 1017.4
20260902031503 61 15 0.0 1.7 0.00 0.00 0.00 80 1017.1
20260902031003 61 11 0.0 1.7 0.00 0.00 0.00 80 1017.2
20260902030503 61 11 0.9 1.7 0.00 0.00 0.00 80 1017.1
20260902030004 61 18 1.7 1.7 0.00 0.00 0.00 80 1017.3
20260902025503 61 38 0.0 1.7 0.00 0.00 0.00 80 1017.1
20260902025004 61 5 0.9 1.7 0.00 0.00 0.00 81 1017.1
20260902024504 61 343 0.9 1.7 0.00 0.00 0.00 81 1017.3
20260902024004 61 3 0.0 2.6 0.00 0.00 0.00 81 1017.2
20260902023503 61 357 0.9 2.6 0.00 0.00 0.00 81 1017.1
20260902023003 61 349 1.7 3.5 0.00 0.00 0.00 81 1017.1
20260902022503 61 355 1.7 3.5 0.00 0.00 0.00 81 1017.0
20260902022003 61 2 1.7 1.7 0.00 0.00 0.00 80 1017.0
20260902021504 61 4 0.9 1.7 0.00 0.00 0.00 80 1017.0
20260902021003 61 26 0.9 1.7 0.00 0.00 0.00 81 1017.1
20260902020503 62 45 0.0 0.9 0.00 0.00 0.00 81 1016.8
20260902020003 62 25 0.0 0.9 0.00 0.00 0.00 81 1017.1
20260902015503 61 1 0.0 1.7 0.00 0.00 0.00 80 1017.0
20260902015003 62 18 0.0 1.7 0.00 0.00 0.00 80 1017.1
20260902014503 62 43 0.9 1.7 0.00 0.00 0.00 80 1017.2
20260902014003 62 64 0.0 0.9 0.00 0.00 0.00 79 1017.0
20260902013503 62 57 0.0 0.9 0.00 0.00 0.00 78 1017.1
20260902013003 62 51 0.0 1.7 0.00 0.00 0.00 78 1016.9
20260902012503 63 53 0.9 1.7 0.00 0.00 0.00 79 1017.1
20260902012216 63 52 0.0 1.7 0.00 0.00 0.00 79 1017.1
20260902011504 62 315 0.0 1.7 0.00 0.00 0.00 79 1017.1
20260902011004 63 328 0.0 1.7 0.00 0.00 0.00 80 1017.1
20260902010504 62 358 0.9 2.6 0.00 0.00 0.00 80 1017.1
20260902010004 62 4 0.9 2.6 0.00 0.00 0.00 80 1017.0
20260902005504 62 26 1.7 2.6 0.00 0.00 0.00 80 1017.0
20260902005004 62 45 0.0 0.9 0.00 0.00 0.00 80 1017.1
20260902004504 62 48 0.0 0.9 0.00 0.00 0.00 80 1017.1
20260902004004 62 51 0.0 0.9 0.00 0.00 0.00 80 1017.2
20260902003504 62 86 0.0 0.9 0.00 0.00 0.00 80 1017.3
20260902003004 63 90 0.0 0.9 0.00 0.00 0.00 80 1017.3
20260902002504 63 341 0.0 1.7 0.00 0.00 0.00 79 1017.3
20260902002217 63 346 0.0 1.7 0.00 0.00 0.00 80 1017.2
20260902001504 63 2 0.9 1.7 0.00 0.00 0.00 79 1017.2
20260902001004 63 5 0.9 1.7 0.00 0.00 0.00 79 1017.4
20260902000504 63 36 0.0 1.7 0.00 0.00 0.00 79 1017.4
20260902000004 63 19 0.0 1.7 0.00 0.00 0.00 79 1017.4
20260901235503 63 358 1.7 1.7 0.00 0.00 0.00 78 1017.4
20260901235004 63 6 0.9 1.7 0.00 0.00 0.00 78 1017.3
20260901234504 63 4 0.9 1.7 0.00 0.00 0.00 78 1017.1
20260901234004 63 4 0.9 1.7 0.00 0.00 0.00 77 1017.4
20260901233504 63 2 0.9 2.6 0.00 0.00 0.00 77 1017.3
20260901233004 63 3 0.9 2.6 0.00 0.00 0.00 77 1017.4
20260901232503 63 7 0.9 1.7 0.00 0.00 0.00 78 1017.3
20260901232004 63 7 0.9 1.7 0.00 0.00 0.00 78 1017.1
20260901231503 63 24 0.9 1.7 0.00 0.00 0.00 79 1017.3
20260901231003 62 35 0.0 1.7 0.00 0.00 0.00 80 1017.3
20260901230504 62 10 0.0 1.7 0.00 0.00 0.00 80 1017.3
20260901230004 62 360 0.9 1.7 0.00 0.00 0.00 80 1017.3
20260901225503 62 20 0.9 1.7 0.00 0.00 0.00 80 1017.6
20260901225004 62 28 0.0 1.7 0.00 0.00 0.00 80 1017.5
20260901224504 62 7 0.9 1.7 0.00 0.00 0.00 80 1017.4
20260901224003 62 359 0.9 1.7 0.00 0.00 0.00 80 1017.4
20260901223503 62 5 0.9 1.7 0.00 0.00 0.00 80 1017.5
20260901223004 62 3 0.9 1.7 0.00 0.00 0.00 80 1017.3
20260901222503 62 360 0.9 1.7 0.00 0.00 0.00 80 1017.4
20260901222003 62 360 0.9 1.7 0.00 0.00 0.00 80 1017.3
20260901221504 62 360 0.9 1.7 0.00 0.00 0.00 80 1017.4
20260901221003 62 360 1.7 1.7 0.00 0.00 0.00 80 1017.4
20260901220503 62 356 0.9 1.7 0.00 0.00 0.00 80 1017.5
20260901220003 62 351 0.9 1.7 0.00 0.00 0.00 80 1017.5
20260901215503 62 356 1.7 1.7 0.00 0.00 0.00 80 1017.3
20260901215003 62 357 1.7 2.6 0.00 0.00 0.00 80 1017.5
20260901214503 62 357 0.9 2.6 0.00 0.00 0.00 80 1017.2
20260901214217 62 348 1.7 2.6 0.00 0.00 0.00 80 1017.4
20260901213503 63 332 0.9 1.7 0.00 0.00 0.00 79 1017.5
20260901213003 63 28 0.0 0.9 0.00 0.00 0.00 80 1017.4
20260901212503 63 2 0.0 1.7 0.00 0.00 0.00 80 1017.4
20260901212003 62 351 0.0 1.7 0.00 0.00 0.00 80 1017.5
20260901211503 62 360 0.9 1.7 0.00 0.00 0.00 80 1017.7
20260901211004 62 360 1.7 2.6 0.00 0.00 0.00 80 1017.6
20260901210504 62 356 0.0 3.5 0.00 0.00 0.00 80 1017.4
20260901210216 62 356 0.9 3.5 0.00 0.00 0.00 80 1017.5
20260901205504 63 9 0.9 1.7 0.00 0.00 0.00 80 1017.4
20260901205004 63 359 0.9 1.7 0.00 0.00 0.00 80 1017.4
20260901204504 63 352 1.7 1.7 0.00 0.00 0.00 80 1017.5
20260901204004 63 360 0.9 1.7 0.00 0.00 0.00 80 1017.4
20260901203506 63 360 0.9 1.7 0.00 0.00 0.00 80 1017.2
20260901203004 63 360 1.7 1.7 0.00 0.00 0.00 81 1017.3
20260901202504 63 360 0.9 1.7 0.00 0.00 0.00 81 1017.4
20260901202214 63 360 0.0 1.7 0.00 0.00 0.00 82 1017.3
20260901201504 63 358 1.7 1.7 0.00 0.00 0.00 82 1017.3
20260901201004 63 360 1.7 1.7 0.00 0.00 0.00 81 1017.3
20260901200504 63 357 0.9 2.6 0.00 0.00 0.00 81 1017.3
20260901200004 63 353 0.9 2.6 0.00 0.00 0.00 81 1017.3
20260901195504 63 355 1.7 1.7 0.00 0.00 0.00 81 1017.2
20260901195004 63 360 1.7 1.7 0.00 0.00 0.00 82 1017.2
20260901194504 63 360 1.7 1.7 0.00 0.00 0.00 82 1017.2
20260901194003 63 360 0.9 2.6 0.00 0.00 0.00 82 1017.2
20260901193503 63 360 1.7 2.6 0.00 0.00 0.00 81 1017.3
20260901193004 63 360 1.7 2.6 0.00 0.00 0.00 80 1017.0
20260901192717 63 360 1.7 2.6 0.00 0.00 0.00 81 1016.9
20260901192003 63 360 0.9 2.6 0.00 0.00 0.00 80 1016.8
20260901191504 63 358 1.7 2.6 0.00 0.00 0.00 80 1017.0
20260901191003 64 357 1.7 1.7 0.00 0.00 0.00 76 1016.7
20260901190504 64 353 0.9 2.6 0.00 0.00 0.00 75 1016.8
20260901190003 64 348 0.9 2.6 0.00 0.00 0.00 74 1016.8
20260901185504 65 305 1.7 1.7 0.00 0.00 0.00 73 1016.8
20260901185213 65 129 0.0 1.7 0.00 0.00 0.00 73 1016.6
20260901184503 65 348 0.0 1.7 0.00 0.00 0.00 73 1016.5
20260901184003 65 352 0.9 2.6 0.00 0.00 0.00 74 1016.7
20260901183717 65 353 0.9 3.5 0.00 0.00 0.00 74 1016.6
20260901183003 65 349 1.7 3.5 0.00 0.00 0.00 73 1016.7
20260901182503 66 27 0.0 1.7 0.00 0.00 0.00 72 1016.6
20260901182004 66 13 0.9 1.7 0.00 0.00 0.00 72 1016.7
20260901181714 66 6 0.9 1.7 0.00 0.00 0.00 72 1016.4
20260901181004 66 31 1.7 1.7 0.00 0.00 0.00 73 1016.2
20260901180503 67 29 0.9 1.7 0.00 0.00 0.00 72 1016.7
20260901180004 67 2 0.9 1.7 0.00 0.00 0.00 72 1016.4
20260901175503 67 360 0.9 1.7 0.00 0.00 0.00 71 1016.3
20260901175003 68 360 1.7 1.7 0.00 0.00 0.00 70 1016.4
20260901174716 68 3 0.9 1.7 0.00 0.00 0.00 69 1016.3
20260901174003 70 52 0.0 1.7 0.00 0.00 0.00 64 1016.3
20260901173503 72 125 0.0 1.7 0.00 0.00 0.00 62 1016.2
20260901173003 73 331 0.9 1.7 0.00 0.00 0.00 58 1016.2
20260901172504 73 324 0.0 1.7 0.00 0.00 0.00 57 1016.2
20260901172004 74 315 0.0 1.7 0.00 0.00 0.00 56 1016.2
20260901171504 74 315 0.0 0.9 0.00 0.00 0.00 60 1016.0
20260901171004 72 316 0.0 1.7 0.00 0.00 0.00 63 1015.9
20260901170504 72 302 0.0 1.7 0.00 0.00 0.00 63 1016.2
20260901170004 72 219 0.9 2.6 0.00 0.00 0.00 63 1016.1
20260901165504 73 212 0.9 3.5 0.00 0.00 0.00 59 1016.2
20260901165004 75 220 1.7 3.5 0.00 0.00 0.00 56 1016.3
20260901164504 76 214 1.7 3.5 0.00 0.00 0.00 55 1016.1
20260901164004 77 216 1.7 3.5 0.00 0.00 0.00 53 1016.1
20260901163504 77 244 1.7 2.6 0.00 0.00 0.00 54 1016.1
20260901163004 75 221 0.9 3.5 0.00 0.00 0.00 57 1016.2
20260901162504 74 165 1.7 3.5 0.00 0.00 0.00 57 1016.2
20260901162217 74 186 0.0 4.3 0.00 0.00 0.00 57 1016.2
20260901161504 74 208 0.9 4.3 0.00 0.00 0.00 56 1016.1
20260901161006 75 216 0.0 3.5 0.00 0.00 0.00 55 1016.2
20260901160505 77 207 2.6 3.5 0.00 0.00 0.00 52 1016.1
20260901160214 77 205 2.6 3.5 0.00 0.00 0.00 52 1016.1
20260901155504 77 193 1.7 5.2 0.00 0.00 0.00 53 1016.3
20260901155005 76 159 1.7 6.1 0.00 0.00 0.00 52 1016.2
20260901154718 77 166 1.7 6.1 0.00 0.00 0.00 51 1016.2
20260901154004 77 193 2.6 7.0 0.00 0.00 0.00 50 1016.3
20260901153505 77 180 3.5 7.0 0.00 0.00 0.00 50 1016.2
20260901153004 78 194 2.6 6.1 0.00 0.00 0.00 50 1016.0
20260901152504 78 203 3.5 6.1 0.00 0.00 0.00 50 1016.1
20260901152005 78 182 2.6 6.1 0.00 0.00 0.00 50 1016.2
20260901151504 78 180 2.6 6.1 0.00 0.00 0.00 50 1016.3
20260901151004 79 196 3.5 6.1 0.00 0.00 0.00 49 1016.1
20260901150505 80 210 3.5 6.1 0.00 0.00 0.00 48 1016.1
20260901150004 80 214 3.5 6.1 0.00 0.00 0.00 50 1016.2
20260901145504 80 215 2.6 5.2 0.00 0.00 0.00 50 1016.2
20260901145004 80 189 1.7 6.1 0.00 0.00 0.00 50 1016.2
20260901144713 79 218 1.7 6.1 0.00 0.00 0.00 51 1016.1